Location: Anjeux
(47.8815°N, 6.2076°E)
Time: 21:00:45
(UTC+00:00)

ADEOS II - Pass Details

Date: 05 March 2021
Orbit: 799 x 801 km, 98.6° (Epoch: 21 April)

Event Time Altitude Azimuth Distance (km) Brightness Sun altitude
Rises 04:00:09 0° 358° (N) 3,324 5.5 -22.1°
Reaches altitude 10° 04:04:11 10° 328° (NNW) 2,388 4.4 -21.5°
Enters shadow 04:04:40 11° 323° (NW) 2,334 4.3 -21.4°
